Location: Bishopstone
(51.0167°N, 1.9000°W)
Time: 10:01:39
(UTC+00:00)

Cosmos 1959 Rocket - Pass Details

Date: 16 September 2019
Orbit: 947 x 997 km, 82.9° (Epoch: 14 October)

Event Time Altitude Azimuth Distance (km) Brightness Sun altitude
Rises 20:06:52 0° 351° (N) 3,632 8.0 -16.9°
Reaches altitude 10° 20:09:24 10° 355° (N) 2,683 7.2 -17.3°
Maximum altitude 20:15:29 64° 77° (ENE) 1,055 4.4 -18.1°
Enters shadow 20:19:07 25° 151° (SSE) 1,818 5.4 -18.6°
